Starlink 31183

operational
NORAD ID: 58747 Int'l Des: 2024-005 Owner: SPXS Country: US Constellation: starlink
LEOCIRCULAR

Über Starlink 31183

Beschreibung wird geladen...

Live-Position

3D-Globus wird geladen...

Nächste Überflüge

Höhenverlauf

Altitude vs Time

uPlot chart will show altitude changes over time

Zweizeiliger Elementsatz

1 58747U 24005V 26034.05454648 .00000103 00000-0 22704-4 0 9996
2 58747 43.0041 49.6501 0001381 264.9747 95.0937 15.02537914115313
Epoch: 3. Feb. 2026 • Age: 30 hours

Aktueller Status

Höhe 558.7 km
Geschwindigkeit 7.59 km/s
Subsatellitenpunkt 18.65°N, 173.17°E
Startdatum 7. Jan. 2024
Alter 2 years
Typ internet

Technische Details

Klassifizierung Payload
Masse 730.00 kg
Trockenmasse 700.00 kg
Gesamtmasse 730.00 kg
Länge 0.30 m
Durchmesser 4.10 m
Spannweite 29.00 m
Form Box + pan
Hersteller SPXS
Bus-Typ Starlink V2M
Phasenstatus In Orbit
Besitzer/Staat SPXS/US

Große Konstellationen

Loading constellations...